• En España
  • Lista de países
  • Para 7 días
  • Temperatura del agua
  • Mapa Satelital
  • El tiempo en el mapa
  • Informadores
  • user-avatar
    Iniciar sesión

    Tiempo cada hora Saurimo

    Hoy, 22 Agosto, Martes

    Tiempo Temperatura Precipitaciones Viento Presión Humedad
    00:00 +20°C° 0 mm 2 mps 670 mmHg 25%
    01:00 +19°C° 0 mm 2 mps 670 mmHg 26%
    02:00 +19°C° 0 mm 2 mps 670 mmHg 27%
    03:00 +18°C° 0 mm 2 mps 670 mmHg 27%
    04:00 +18°C° 0 mm 2 mps 670 mmHg 28%
    05:00 +19°C° 0 mm 2 mps 670 mmHg 27%
    06:00 +19°C° 0 mm 3 mps 671 mmHg 27%
    07:00 +20°C° 0 mm 3 mps 671 mmHg 27%
    08:00 +25°C° 0 mm 3 mps 672 mmHg 24%
    09:00 +28°C° 0 mm 3 mps 673 mmHg 22%
    10:00 +31°C° 0 mm 3 mps 673 mmHg 19%
    11:00 +34°C° 0 mm 3 mps 673 mmHg 16%
    12:00 +36°C° 0 mm 2 mps 672 mmHg 14%
    13:00 +37°C° 0 mm 2 mps 672 mmHg 11%
    14:00 +37°C° 0 mm 2 mps 671 mmHg 11%
    15:00 +37°C° 0 mm 2 mps 671 mmHg 11%
    16:00 +36°C° 0 mm 2 mps 670 mmHg 11%
    17:00 +32°C° 0 mm 1 mps 670 mmHg 14%
    18:00 +30°C° 0 mm 1 mps 669 mmHg 17%
    19:00 +27°C° 0 mm 1 mps 669 mmHg 19%
    20:00 +26°C° 0 mm 1 mps 669 mmHg 21%
    21:00 +25°C° 0 mm 1 mps 670 mmHg 23%
    22:00 +24°C° 0 mm 1 mps 670 mmHg 24%
    23:00 +23°C° 0 mm 1 mps 670 mmHg 25%

    Mañana, 23 Agosto, Miércoles

    Tiempo Temperatura Precipitaciones Viento Presión Humedad
    00:00 +22°C° 0 mm 1 mps 669 mmHg 26%
    01:00 +21°C° 0 mm 1 mps 669 mmHg 27%
    02:00 +21°C° 0 mm 1 mps 669 mmHg 27%
    03:00 +19°C° 0 mm 2 mps 669 mmHg 27%
    04:00 +19°C° 0 mm 2 mps 668 mmHg 27%
    05:00 +20°C° 0 mm 2 mps 669 mmHg 25%
    06:00 +21°C° 0 mm 2 mps 670 mmHg 23%
    07:00 +23°C° 0 mm 2 mps 670 mmHg 20%
    08:00 +26°C° 0 mm 2 mps 671 mmHg 18%
    09:00 +30°C° 0 mm 3 mps 672 mmHg 15%
    10:00 +35°C° 0 mm 3 mps 673 mmHg 12%
    11:00 +36°C° 0 mm 3 mps 672 mmHg 11%
    12:00 +38°C° 0 mm 2 mps 671 mmHg 11%
    13:00 +39°C° 0 mm 2 mps 671 mmHg 10%
    14:00 +39°C° 0 mm 2 mps 670 mmHg 10%
    15:00 +37°C° 0 mm 1 mps 669 mmHg 10%
    16:00 +37°C° 0 mm 1 mps 669 mmHg 10%
    17:00 +34°C° 0 mm 1 mps 669 mmHg 12%
    18:00 +31°C° 0 mm 1 mps 669 mmHg 15%
    19:00 +26°C° 0 mm 0 mps 668 mmHg 18%
    20:00 +25°C° 0 mm 0 mps 669 mmHg 19%
    21:00 +24°C° 0 mm 0 mps 669 mmHg 20%
    22:00 +25°C° 0 mm 1 mps 670 mmHg 21%
    23:00 +24°C° 0 mm 1 mps 669 mmHg 23%

    Pasado mañana, 24 Agosto, Jueves

    Tiempo Temperatura Precipitaciones Viento Presión Humedad
    00:00 +22°C° 0 mm 0 mps 669 mmHg 25%
    01:00 +21°C° 0 mm 0 mps 669 mmHg 26%
    02:00 +23°C° 0 mm 1 mps 669 mmHg 28%
    03:00 +22°C° 0 mm 1 mps 668 mmHg 30%
    04:00 +22°C° 0 mm 1 mps 668 mmHg 31%
    05:00 +23°C° 0 mm 1 mps 669 mmHg 31%
    06:00 +22°C° 0 mm 0 mps 670 mmHg 30%
    07:00 +23°C° 0 mm 0 mps 670 mmHg 30%
    08:00 +29°C° 0 mm 1 mps 671 mmHg 27%
    09:00 +32°C° 0 mm 1 mps 672 mmHg 25%
    10:00 +36°C° 0 mm 2 mps 672 mmHg 22%
    11:00 +39°C° 0 mm 1 mps 672 mmHg 19%
    12:00 +41°C° 0 mm 1 mps 672 mmHg 15%
    13:00 +41°C° 0 mm 0 mps 671 mmHg 11%
    14:00 +39°C° 0 mm 0 mps 671 mmHg 11%
    15:00 +38°C° 0 mm 0 mps 670 mmHg 12%
    16:00 +36°C° 0 mm 0 mps 669 mmHg 12%
    17:00 +36°C° 0 mm 1 mps 669 mmHg 14%
    18:00 +33°C° 0 mm 1 mps 669 mmHg 16%
    19:00 +30°C° 0 mm 1 mps 669 mmHg 19%
    20:00 +29°C° 0 mm 1 mps 669 mmHg 21%
    21:00 +28°C° 0 mm 1 mps 669 mmHg 23%
    22:00 +26°C° 0 mm 1 mps 669 mmHg 24%
    23:00 +26°C° 0 mm 1 mps 669 mmHg 26%

    25 Agosto, Viernes

    Tiempo Temperatura Precipitaciones Viento Presión Humedad
    00:00 +23°C° 0 mm 0 mps 669 mmHg 27%
    01:00 +23°C° 0 mm 0 mps 668 mmHg 28%
    02:00 +22°C° 0 mm 0 mps 668 mmHg 30%
    03:00 +24°C° 0 mm 1 mps 668 mmHg 31%
    04:00 +23°C° 0 mm 1 mps 668 mmHg 32%
    05:00 +24°C° 0 mm 1 mps 669 mmHg 31%
    06:00 +25°C° 0 mm 1 mps 670 mmHg 30%
    07:00 +26°C° 0 mm 2 mps 670 mmHg 30%
    08:00 +29°C° 0 mm 2 mps 671 mmHg 25%
    09:00 +34°C° 0 mm 2 mps 672 mmHg 20%
    10:00 +37°C° 0 mm 2 mps 672 mmHg 16%
    11:00 +39°C° 0 mm 2 mps 672 mmHg 13%
    12:00 +41°C° 0 mm 1 mps 671 mmHg 11%
    13:00 +43°C° 0 mm 1 mps 670 mmHg 8%
    14:00 +42°C° 0 mm 1 mps 670 mmHg 8%
    15:00 +41°C° 0 mm 1 mps 669 mmHg 8%
    16:00 +40°C° 0 mm 1 mps 668 mmHg 8%
    17:00 +36°C° 0 mm 1 mps 668 mmHg 10%
    18:00 +33°C° 0 mm 1 mps 668 mmHg 12%
    19:00 +29°C° 0 mm 1 mps 668 mmHg 14%
    20:00 +28°C° 0 mm 1 mps 668 mmHg 14%
    21:00 +27°C° 0 mm 1 mps 668 mmHg 15%
    22:00 +26°C° 0 mm 1 mps 668 mmHg 16%
    23:00 +25°C° 0 mm 1 mps 668 mmHg 17%

    26 Agosto, Sábado

    Tiempo Temperatura Precipitaciones Viento Presión Humedad
    00:00 +24°C° 0 mm 1 mps 667 mmHg 17%
    01:00 +23°C° 0 mm 1 mps 667 mmHg 18%
    02:00 +23°C° 0 mm 1 mps 667 mmHg 18%
    03:00 +23°C° 0 mm 1 mps 667 mmHg 19%
    04:00 +22°C° 0 mm 1 mps 667 mmHg 19%
    05:00 +23°C° 0 mm 1 mps 668 mmHg 18%
    06:00 +24°C° 0 mm 1 mps 669 mmHg 18%
    07:00 +25°C° 0 mm 1 mps 670 mmHg 17%
    08:00 +29°C° 0 mm 1 mps 671 mmHg 15%
    09:00 +33°C° 0 mm 1 mps 671 mmHg 13%
    10:00 +37°C° 0 mm 1 mps 672 mmHg 12%
    11:00 +39°C° 0 mm 1 mps 671 mmHg 11%
    12:00 +41°C° 0 mm 1 mps 671 mmHg 10%
    13:00 +42°C° 0 mm 1 mps 670 mmHg 10%
    14:00 +41°C° 0 mm 1 mps 670 mmHg 10%
    15:00 +40°C° 0 mm 2 mps 669 mmHg 11%
    16:00 +39°C° 0 mm 2 mps 668 mmHg 12%
    17:00 +36°C° 0 mm 2 mps 668 mmHg 15%
    18:00 +34°C° 0 mm 2 mps 668 mmHg 19%
    19:00 +30°C° 0 mm 2 mps 668 mmHg 22%
    20:00 +29°C° 0 mm 2 mps 669 mmHg 25%
    21:00 +28°C° 0 mm 2 mps 669 mmHg 28%
    22:00 +27°C° 0 mm 1 mps 669 mmHg 30%
    23:00 +27°C° 0 mm 1 mps 668 mmHg 33%

    27 Agosto, Domingo

    Tiempo Temperatura Precipitaciones Viento Presión Humedad
    00:00 +26°C° 0 mm 1 mps 668 mmHg 35%
    01:00 +25°C° 0 mm 1 mps 668 mmHg 37%
    02:00 +25°C° 0 mm 1 mps 668 mmHg 38%
    03:00 +24°C° 0 mm 1 mps 668 mmHg 40%
    04:00 +23°C° 0 mm 1 mps 668 mmHg 41%
    05:00 +24°C° 0 mm 1 mps 668 mmHg 39%
    06:00 +25°C° 0 mm 1 mps 669 mmHg 37%
    07:00 +26°C° 0 mm 1 mps 670 mmHg 35%
    08:00 +29°C° 0 mm 1 mps 671 mmHg 30%
    09:00 +32°C° 0 mm 1 mps 671 mmHg 24%
    10:00 +36°C° 0 mm 2 mps 672 mmHg 18%
    11:00 +39°C° 0 mm 1 mps 672 mmHg 16%
    12:00 +42°C° 0 mm 1 mps 672 mmHg 14%
    13:00 +44°C° 0 mm 1 mps 672 mmHg 11%
    14:00 +42°C° 0 mm 1 mps 671 mmHg 13%
    15:00 +40°C° 0 mm 2 mps 670 mmHg 14%
    16:00 +38°C° 0 mm 2 mps 669 mmHg 15%
    17:00 +35°C° 0 mm 2 mps 669 mmHg 19%
    18:00 +32°C° 0 mm 2 mps 669 mmHg 22%
    19:00 +30°C° 0 mm 1 mps 669 mmHg 25%
    20:00 +29°C° 0 mm 1 mps 669 mmHg 28%
    21:00 +28°C° 0 mm 1 mps 669 mmHg 31%
    22:00 +25°C° 0 mm 0 mps 669 mmHg 33%
    23:00 +24°C° 0 mm 0 mps 669 mmHg 34%
    Mostrar más